Flag for Australia Weather past 2 weeks in Samford, Queensland, Australia

Now
57 °F

Fog.


Feels Like: 57 °F
Forecast: 48 / 72 °F
Wind: No wind

Location: Brisbane Airport M. O

Current Time: Jul 27, 2014 at 2:16:52 AM

Latest Report: Jul 27, 2014 at 1:30 AM


Visibility: N/A

Pressure: 30.18 "Hg

Humidity: 100%

Dew point: 57 °F

Location of SamfordLocation

Historic Weather in Samford — Graph

°F

Samford temperature yesterday

Maximum temperature yesterday: 70 °F (at 11:30 AM)
Minimum temperature yesterday: 54 °F (at 3:00 AM)
Average temperature yesterday: 62 °F

Past Weeks' High & Low Weather Summary

 TemperatureHumidityPressure
High72 °F (Jul 12, 2:00 PM)100% (Jul 16, 2:00 AM)30.36 "Hg (Jul 16, 2:00 AM)
Low39 °F (Jul 12, 5:30 AM)14% (Jul 12, 3:30 PM)29.86 "Hg (Jul 18, 2:00 PM)
Average58 °F65%30.14 "Hg
* Reported Jul 12 1:00 AM — Jul 27 1:00 AM, Samford, Weather by CustomWeather, © 2014

Note: Actual official high and low records may vary slightly from our data, if they occured in-between our weather recording intervals... More about our weather records

Advertising

Samford weather history for previous 24 hours

 ConditionsComfort  
Time TempWeatherWind HumidityBarometerVisibility
1:00 AM
Jul 27
59 °FFog.No wind94%30.18 "HgN/A
12:30 AM59 °FClear.2 mph100%30.21 "Hg10 mi
12:00 AM61 °FClear.6 mph94%30.21 "Hg10 mi
11:30 PM
Jul 26
61 °FClear.5 mph94%30.21 "Hg10 mi
11:00 PM61 °FClear.1 mph94%30.21 "Hg10 mi
10:30 PM61 °FClear.5 mph94%30.21 "Hg10 mi
10:00 PM61 °FClear.6 mph100%30.24 "Hg10 mi
9:30 PM61 °FClear.2 mph100%30.24 "Hg10 mi
9:00 PM63 °FClear.1 mph94%30.24 "Hg10 mi
8:30 PM63 °FClear.5 mph94%30.24 "Hg10 mi
8:00 PM63 °FClear.No wind94%30.24 "Hg10 mi
7:30 PM63 °FPassing clouds.5 mph94%30.24 "HgN/A
7:00 PM63 °FPassing clouds.6 mph94%30.24 "HgN/A
6:30 PM63 °FScattered showers. Overcast.6 mph94%30.24 "HgN/A
6:00 PM63 °FRain showers. Partly cloudy.5 mph94%30.24 "HgN/A
5:30 PM64 °FThundershowers. Partly cloudy.7 mph83%30.21 "HgN/A
5:00 PM64 °FPartly cloudy.10 mph83%30.21 "HgN/A
4:30 PM66 °FPassing clouds.8 mph78%30.21 "HgN/A
4:00 PM66 °FBroken clouds.9 mph78%30.21 "HgN/A
3:30 PM68 °FBroken clouds.9 mph69%30.21 "HgN/A
3:00 PM68 °FOvercast.9 mph69%30.21 "HgN/A
2:30 PM68 °FPartly sunny.9 mph69%30.21 "HgN/A
2:00 PM70 °FPartly sunny.8 mph69%30.21 "HgN/A
1:30 PM70 °FPartly sunny.8 mph69%30.21 "HgN/A
1:00 PM70 °FPartly sunny.6 mph64%30.24 "HgN/A
12:30 PM70 °FPartly sunny.6 mph64%30.24 "HgN/A
12:00 PM68 °FBroken clouds.6 mph69%30.27 "HgN/A
11:30 AM70 °FPartly sunny.5 mph64%30.27 "HgN/A
11:00 AM66 °FSunny.5 mph73%30.30 "Hg10 mi
10:30 AM66 °FSunny.7 mph73%30.30 "Hg10 mi
10:00 AM64 °FSunny.7 mph78%30.33 "Hg10 mi
9:30 AM63 °FSunny.7 mph88%30.33 "Hg10 mi
9:00 AM61 °FSunny.6 mph94%30.33 "Hg10 mi
8:30 AM59 °FPartly sunny.7 mph94%30.33 "Hg5 mi
8:00 AM57 °FFog.6 mph100%30.33 "Hg6 mi
7:00 AM57 °FFog.5 mph94%30.30 "Hg3 mi
6:30 AM55 °FFog.3 mph100%30.30 "Hg3 mi
6:00 AM55 °FFog.3 mph100%30.30 "HgN/A
5:30 AM55 °FFog.2 mph100%30.30 "HgN/A
5:00 AM55 °FFog.3 mph100%30.27 "HgN/A
4:30 AM55 °FFog.5 mph94%30.27 "HgN/A
4:00 AM55 °FFog.2 mph94%30.27 "HgN/A
3:30 AM54 °FFog.No wind100%30.27 "HgN/A
3:00 AM54 °FFog.3 mph100%30.27 "HgN/A
2:00 AM55 °FFog.No wind94%30.30 "Hg1 mi
Weather by CustomWeather, © 2014

See weather overviewHow to use our weather pages